JP7FSO Weather Reports


time (UTC)temp
C
wind
direction
speed
KPH
gust
KPH
rain 1hr
cm
rain 24hr
cm
rain mn
cm
humidity
%
barometer
mb
20260505191503 8 300 0.0 0.0 0.00 0.00 0.00 76 1013.7
20260505190021 8 295 0.0 0.0 0.00 0.00 0.00 76 1013.5
20260505184559 8 268 0.0 0.0 0.00 0.00 0.00 75 1013.3
20260505183003 9 269 0.0 0.0 0.00 0.00 0.00 75 1013.3
20260505174524 10 280 0.0 0.0 0.00 0.00 0.00 72 1013.2
20260505173052 10 260 0.0 0.0 0.00 0.00 0.00 71 1013.2
20260505171559 10 272 0.0 0.0 0.00 0.00 0.00 70 1013.1
20260505170013 10 186 0.0 0.0 0.00 0.00 0.00 69 1013.1
20260505164504 10 285 0.0 0.0 0.00 0.00 0.00 68 1013.1
20260505163012 11 255 0.0 0.0 0.00 0.00 0.00 67 1013.1
20260505161509 11 350 0.0 0.0 0.00 0.00 0.00 65 1013.0
20260505153108 12 314 0.0 0.0 0.00 0.00 0.00 62 1013.1
20260505151532 12 249 0.0 0.0 0.00 0.00 0.00 60 1012.9
20260505124600 13 204 0.0 0.0 0.00 0.00 0.13 58 1012.8
20260505123000 13 264 0.0 0.0 0.00 0.00 0.13 56 1012.7
20260505121614 13 209 0.0 0.0 0.00 0.00 0.13 55 1012.7
20260505120016 13 259 0.0 0.0 0.00 0.00 0.13 54 1012.7
20260505114520 14 243 0.0 0.0 0.00 0.00 0.13 53 1012.7
20260505113106 15 276 0.0 0.0 0.00 0.00 0.13 50 1012.7
20260505111538 15 281 0.0 0.0 0.00 0.00 0.13 48 1012.3
20260505101522 17 248 0.0 0.0 0.00 0.00 0.13 40 1011.5
20260505100055 17 283 0.0 0.0 0.00 0.00 0.13 39 1011.4
20260505094608 18 254 0.0 0.0 0.00 0.00 0.13 37 1011.2
20260505091514 19 224 0.0 0.0 0.00 0.00 0.13 31 1011.1
20260505090017 20 224 0.0 0.0 0.00 0.00 0.13 31 1010.8
20260505084524 20 224 0.0 0.0 0.00 0.00 0.13 30 1010.6
20260505083005 21 263 0.0 0.0 0.00 0.00 0.13 27 1010.7
20260505081527 22 273 0.0 0.0 0.00 0.00 0.13 27 1010.8
20260505080030 22 147 0.0 0.0 0.00 0.00 0.13 27 1010.6
20260505074529 23 256 1.6 0.0 0.00 0.00 0.13 25 1010.6
20260505073006 23 212 0.0 0.0 0.00 0.00 0.13 26 1010.6
20260505071602 23 159 1.6 0.0 0.00 0.00 0.13 27 1010.5
20260505064506 23 309 1.6 0.0 0.00 0.00 0.13 25 1010.5
20260505063004 23 116 0.0 0.0 0.00 0.00 0.13 24 1010.6
20260505061503 23 276 1.6 0.0 0.00 0.00 0.13 26 1010.6
20260505060007 23 261 1.6 0.0 0.00 0.00 0.13 25 1010.6
20260505054510 23 271 1.6 0.0 0.00 0.00 0.13 25 1010.6
20260505053024 23 264 3.2 0.0 0.00 0.00 0.13 26 1010.6
20260505051502 23 253 0.0 0.0 0.00 0.00 0.13 24 1010.6
20260505041524 23 319 3.2 0.0 0.00 0.00 0.13 25 1010.6
20260505034559 22 211 3.2 0.0 0.00 0.00 0.13 27 1010.9
20260505033103 22 276 3.2 0.0 0.00 0.00 0.13 27 1011.0
20260505031516 21 250 3.2 0.0 0.00 0.00 0.13 27 1011.2
20260505030005 21 276 4.8 0.0 0.00 0.00 0.13 28 1011.4
20260505024529 22 186 3.2 0.0 0.00 0.00 0.13 28 1011.5
20260505023105 21 310 1.6 0.0 0.00 0.00 0.13 28 1011.5
20260505021608 20 294 3.2 0.0 0.00 0.00 0.13 29 1011.5
20260505020036 20 250 4.8 0.0 0.00 0.00 0.13 28 1011.7
20260505014526 20 271 3.2 0.0 0.00 0.00 0.13 31 1011.7
20260505013004 19 142 3.2 0.0 0.00 0.00 0.13 33 1011.4
20260505011502 18 314 3.2 0.0 0.00 0.00 0.13 35 1011.6
20260505010103 18 249 3.2 0.0 0.00 0.00 0.13 40 1011.4
20260505004557 17 288 1.6 0.0 0.00 0.00 0.13 38 1011.2
20260505003014 16 246 0.0 0.0 0.00 0.00 0.13 44 1011.2
20260505001510 16 300 0.0 0.0 0.00 0.00 0.13 45 1011.1
20260505000109 16 212 1.6 0.0 0.00 0.00 0.13 46 1010.6
20260504234516 15 260 3.2 0.0 0.00 0.00 0.13 43 1010.5
20260504231504 14 259 3.2 0.0 0.00 0.00 0.13 51 1010.2
20260504230107 13 287 0.0 0.0 0.00 0.00 0.13 56 1010.2
20260504224504 13 280 0.0 0.0 0.00 0.00 0.13 60 1010.1
20260504223013 12 287 0.0 0.0 0.00 0.00 0.13 60 1009.7
20260504221529 12 257 1.6 0.0 0.00 0.00 0.13 62 1009.5
20260504220100 11 242 1.6 0.0 0.00 0.00 0.13 64 1009.4
20260504214515 10 321 1.6 0.0 0.00 0.00 0.13 67 1009.0
20260504213112 10 268 4.8 0.0 0.00 0.00 0.13 69 1008.9
20260504211533 9 300 4.8 0.0 0.00 0.00 0.13 71 1009.0
20260504210106 9 274 4.8 0.0 0.00 0.00 0.13 71 1008.6
20260504204604 9 289 3.2 0.0 0.00 0.00 0.13 73 1008.2
20260504203029 8 297 3.2 0.0 0.00 0.00 0.13 76 1008.1
20260504201514 8 330 3.2 0.0 0.00 0.00 0.13 78 1008.0
20260504200004 8 279 1.6 0.0 0.00 0.00 0.13 78 1007.8
20260504194517 7 279 0.0 0.0 0.00 0.00 0.13 78 1007.6
20260504193027 8 269 0.0 0.0 0.00 0.00 0.13 76 1007.6